Regional Weather Roundup
Issued by NWS Jackson, KY

Home | Current Version | Previous Version | Text Only | Print | Product List | Glossary Off
Versions: 1 2 3 4 5 6 7 8 9 10 11 12 13 14 15 16 17 18 19 20 21 22 23 24 25 26 27 28 29 30 31 32 33 34 35 36 37 38 39 40 41 42 43 44 45 46 47 48 49 50

000
ASUS43 KJKL 071610
RWRJKL

EAST KENTUCKY HOURLY WEATHER ROUNDUP
NATIONAL WEATHER SERVICE JACKSON KY
1100 AM EST WED DEC 07 2016

NOTE: "FAIR" INDICATES FEW OR NO CLOUDS BELOW 12,000 FEET WITH
NO SIGNIFICANT WEATHER AND/OR OBSTRUCTIONS TO VISIBILITY.

* THESE REPORTS ARE NOT UNDER NWS QUALITY CONTROL AND MAY NOT
  REPORT WEATHER SUCH AS PRECIPITATION AND FOG.

KYZ079-080-083-085-087-088-110-112-115-119-120-071700
...EASTERN KENTUCKY...

CITY           SKY/WX    TMP DP  RH WIND       PRES   REMARKS
JACKSON        SUNNY     39  31  72 CALM      30.16R
LONDON         CLOUDY    37  31  78 CALM      30.17R
SOMERSET*      SUNNY     39  32  75 NE6       30.18S WCI  35
MONTICELLO*    PTSUNNY   39  33  79 N10G16    30.20R WCI  32
WILLIAMSBURG*  PTSUNNY   37  36  93 N7        30.16R WCI  32
MIDDLESBORO*   SUNNY     45  37  72 E6        30.13S
HARLAN APT*    SUNNY     45  34  65 E3        30.11F
PIKE CO APT*   CLOUDY    37  34  89 CALM      30.14F
BIG SANDY APT* CLOUDY    38  33  80 CALM      30.16F
MOREHEAD APT*  MOSUNNY   37  28  70 W3        30.19S
ASHLAND*       SUNNY     41  32  70 W8        30.16F
$$

KYZ035-036-041-042-044-050-067-078-099-071700
...CENTRAL KENTUCKY...

CITY           SKY/WX    TMP DP  RH WIND       PRES   REMARKS
MT STERLING*   MOSUNNY   37  32  81 CALM      30.20R
FLEMING/MASON* SUNNY     36  27  69 NW8       30.20R WCI  29
DANVILLE*      MOSUNNY   37  32  81 N5        30.20R WCI  34
LEXINGTON      SUNNY     40  28  62 N5        30.19R
FRANKFORT      MOSUNNY   39  28  64 N6        30.19R WCI  35
LOUISVILLE     PTSUNNY   40  24  53 CALM      30.21S
LEBANON*         N/A     39  28  65 NW5       30.20R
GLASGOW*       CLOUDY    39  30  68 NE7       30.19S WCI  34
BOWLING GREEN  PTSUNNY   41  32  70 N7        30.22R
$$

KYZ091>093-OHZ055-061-077-WVZ005-015-034-035-042-071700
...SOUTHERN OHIO/WEST VIRGINIA...

CITY           SKY/WX    TMP DP  RH WIND       PRES   REMARKS
COVINGTON      PTSUNNY   36  23  59 W8        30.19R WCI  30
COLUMBUS       MOSUNNY   34  24  67 W9        30.16R WCI  27
DAYTON         MOSUNNY   33  21  61 SW9       30.16R WCI  25
WILMINGTON     SUNNY     33  23  66 W7        30.16S WCI  27
HUNTINGTON     SUNNY     41  29  62 VRB5      30.16S
CHARLESTON     MOSUNNY   40  30  67 SW7       30.15R
PINEVILLE*     PTSUNNY   43  29  59 MISG      30.16S
BECKLEY        PTSUNNY   39  29  67 VRB3      30.08S
BLUEFIELD      CLOUDY    35  29  78 NW6       30.08S WCI  30
LOGAN CO APT*  CLOUDY    37  34  87 CALM      30.13S
$$

VAZ002-007-008-TNZ017-027-036-066-071-071700
...SOUTHWEST VIRGINIA/EAST TENNESSEE...

CITY           SKY/WX    TMP DP  RH WIND       PRES   REMARKS
WISE*          MOSUNNY   37  36  93 CALM      30.09F
JONESVILLE*      N/A     46  36  66 CALM      30.13S
ABINGDON*      SUNNY     45  35  67 CALM      30.09F
BRISTOL        MOSUNNY   46  35  65 CALM      30.10F
MORRISTOWN*    SUNNY     46  37  71 NE7       30.09S
SEVIERVILLE*   SUNNY     46  37  71 E6        30.09S
KNOXVILLE      MOSUNNY   49  38  65 NE9       30.09R
OAK RIDGE      SUNNY     49  36  61 VRB6      30.11S
CROSSVILLE     CLOUDY    39  34  82 E7        30.10S WCI  34
NASHVILLE      CLOUDY    42  34  73 NE12      30.20R
$$

...KEY TO REMARKS...
VSB - VISIBILITY IN MILES
WCI - WIND CHILL INDEX
HX  - HEAT INDEX

$$



USA.gov is the U.S. government's official web portal to all federal, state and local government web resources and services.